Juan de Fuca Strait - central strait: Past 24 Hour Conditions

 

Sheringham Point

03:00 AM PST 28 November 2014
This table is a summary of hourly weather conditions for the past 24 hours.
Date / Time
(PST)
Wind(knots) Conditions Visibility(km) Pressure(kPa) Air tempC) Relative humidity(%) Dew pointC)
28 November 2014
3:00 WNW 29 N/A N/A 100.1 9 94 8
2:00 WNW 26 gust 31 N/A N/A 100.1 9 95 8
1:00 WNW 20 gust 25 N/A N/A 100.1 12 96 11
0:00 WNW 15 N/A N/A 100.1 11 94 10
27 November 2014
23:00 WNW 13 N/A N/A 100.2 11 96 11
22:00 WNW 17 N/A N/A 100.3 12 93 11
21:00 WNW 14 gust 20 N/A N/A 100.3 11 96 11
20:00 WNW 12 gust 17 N/A N/A 100.4 12 96 11
19:00 WNW 17 gust 22 N/A N/A 100.4 11 95 11
18:00 WNW 15 N/A N/A 100.4 12 94 11
17:00 WNW 14 N/A N/A 100.5 13 92 11
16:00 WNW 14 N/A N/A 100.5 13 96 12
15:00 WNW 13 N/A N/A 100.5 12 95 11
14:00 WNW 13 N/A N/A 100.6 12 93 11
13:00 WNW 12 N/A N/A 100.6 13 93 12
12:00 WNW 7 N/A N/A 100.7 13 90 12
11:00 WNW 9 N/A N/A 100.7 13 89 11
10:00 NW 6 N/A N/A 100.8 13 91 12
9:00 WNW 11 N/A N/A 100.8 13 94 12
8:00 WNW 11 N/A N/A 100.8 12 97 12
7:00 WNW 11 N/A N/A 100.8 13 95 13
6:00 WNW 9 N/A N/A 100.7 13 97 12
5:00 WNW 9 N/A N/A 100.8 13 93 12
4:00 WNW 17 N/A N/A 100.7 13 93 12
3:00 WNW 20 N/A N/A 100.8 12 94 11
 
Map of Pacific - Georgia Basin marine weather areas Tsawwassen Ferry Terminal Sentry Shoal - 46131 Halibut Bank - 46146 La Perouse Bank - 46206 Discovery Island Esquimalt Harbour Kelp Reefs Malahat Race Rocks Lightstation Saturna Island Sheringham Point University of Victoria Victoria Gonzales Victoria Int'l Airport Ballenas Islands Campbell River Airport Comox Airport Entrance Island Fanny Island Nanaimo Airport Sisters Islets Estevan Point Tofino Airport Grief Point Powell River Airport Sechelt Point Atkinson Sand Heads Lightstation Vancouver Harbour Vancouver Int'l Airport West Vancouver Port Alberni Howe Sound - Pam Rocks Squamish Airport